Home   Weather   Koblenz   Past weeks

Flag for Germany Past Weather in Koblenz, Rhineland-Palatinate, Germany — Yesterday and Last 2 Weeks

Now
25 °F

Cold.


Feels Like: 16 °F
Forecast: 12 / 27 °F
Wind: 8 mph from East

Location: Buechel

Current Time: Jan 21, 2017 at 7:47:55 am

Latest Report: Jan 21, 2017 at 6:20 am


Visibility: 6 mi

Pressure: 30.33 "Hg

Humidity: 63%

Dew Point: 14 °F

Location of KoblenzLocation

Past Weather in Koblenz — Graph

°F

Koblenz Temperature Yesterday

Maximum temperature yesterday: 30 °F (at 1:20 pm)
Minimum temperature yesterday: 19 °F (at 12:20 am)
Average temperature yesterday: 25 °F

High & Low Weather Summary for the Past Weeks

 TemperatureHumidityPressure
High39 °F (Jan 11, 6:20 pm)100% (Jan 7, 5:20 pm)30.66 "Hg (Jan 7, 5:20 pm)
Low14 °F (Jan 6, 10:20 pm)34% (Jan 20, 11:43 am)29.00 "Hg (Jan 13, 1:20 am)
Average27 °F87%30.14 "Hg
* Reported Jan 6 6:20 am — Jan 21 6:20 am, Koblenz, Weather by CustomWeather, © 2017

Note: Actual official high and low records may vary slightly from our data, if they occured in-between our weather recording intervals... More about our weather records

Advertising

Koblenz Weather History for the Previous 24 Hours

Scroll right to see more
 ConditionsComfort  
Time TempWeatherWind HumidityBarometerVisibility
6:20 am
Sat, Jan 21
25 °FCold.8 mph63%30.33 "Hg6 mi
5:20 am27 °FChilly.9 mph59%30.36 "Hg6 mi
4:20 am27 °FChilly.7 mph64%30.36 "Hg6 mi
3:20 am27 °FChilly.8 mph64%30.36 "Hg5 mi
2:20 am27 °FChilly.8 mph59%30.36 "Hg6 mi
1:20 am28 °FChilly.8 mph55%30.39 "Hg6 mi
12:20 am27 °FChilly.8 mph54%30.39 "Hg5 mi
11:20 pm
Fri, Jan 20
28 °FChilly.8 mph55%30.39 "Hg5 mi
10:20 pm28 °FChilly.8 mph55%30.39 "Hg5 mi
9:20 pm27 °FChilly.9 mph59%30.42 "Hg5 mi
8:20 pm27 °FChilly.9 mph50%30.42 "Hg5 mi
7:20 pm27 °FChilly.8 mph43%30.42 "Hg5 mi
6:20 pm27 °FChilly.10 mph43%30.42 "Hg6 mi
5:20 pm27 °FChilly.9 mph43%30.42 "Hg6 mi
4:20 pm28 °FChilly.9 mph40%30.42 "Hg5 mi
3:20 pm28 °FChilly.10 mph40%30.42 "Hg4 mi
2:20 pm30 °FChilly.9 mph37%30.42 "Hg5 mi
1:20 pm30 °FChilly.9 mph34%30.45 "Hg5 mi
12:20 pm28 °FPassing clouds.9 mph34%30.45 "HgN/A
11:43 am28 °FPassing clouds.9 mph34%30.45 "HgN/A
11:20 am27 °FPassing clouds.9 mph39%30.48 "HgN/A
10:20 am25 °FPassing clouds.7 mph39%30.48 "HgN/A
9:20 am23 °FCold.9 mph42%30.48 "HgN/A
8:20 am19 °FCold.10 mph49%30.45 "HgN/A
7:20 am19 °FCold.8 mph53%30.45 "HgN/A
Weather by CustomWeather, © 2017

See weather overviewHow to use our weather pages